Theta_e
329 328 329 329 325 322 326 330 326 329 329 329 329 328 329 333 332 324 334 334 334 332 330 331 333 334 335 334 332 330 327 323 319 316 326 330 329 327 323 327 324 328 327 319 320 316 318 321 324
328 328 328 329 325 328 326 324 329 329 329 330 330 332 331 334 334 334 334 335 336 334 329 331 333 333 334 333 331 329 324 319 314 312 323 329 328 328 326 324 327 325 325 315 313 315 316 322 325
328 328 327 322 324 327 326 324 327 329 331 331 331 332 334 334 333 332 333 334 336 335 330 332 333 333 333 331 331 328 321 316 313 313 323 327 323 323 325 324 325 325 327 313 312 313 314 321 325
327 327 326 324 328 327 325 324 327 329 329 331 331 332 334 334 334 331 333 335 336 334 329 332 332 333 332 330 331 329 323 321 314 312 316 328 327 327 328 325 323 326 327 314 311 312 313 317 323
326 326 323 325 326 324 323 324 328 328 328 329 331 332 334 334 334 333 334 336 336 335 329 331 330 332 329 329 330 329 324 323 315 312 313 329 327 324 327 326 323 325 316 312 311 311 312 314 319
325 323 323 326 325 321 322 323 324 325 327 330 329 332 334 334 332 331 333 335 336 335 332 329 328 328 327 329 330 329 325 324 316 313 311 320 327 325 325 324 322 316 312 312 312 311 311 312 314
322 318 323 324 324 322 321 322 324 323 328 329 329 331 334 335 333 332 334 335 335 336 335 332 328 327 326 328 329 329 325 325 320 316 313 312 315 323 326 324 323 316 313 312 312 312 311 311 312
324 318 323 322 322 323 320 322 323 324 325 328 329 327 330 332 332 332 335 336 336 334 335 335 332 327 325 324 327 327 326 324 325 321 317 312 313 315 320 320 325 323 318 314 312 312 312 312 312
325 319 320 322 322 321 321 319 322 322 322 324 328 330 330 331 332 333 334 335 336 335 334 335 335 331 326 324 325 324 325 322 326 325 323 315 312 313 315 317 319 317 320 320 313 312 312 312 312
323 319 320 319 321 320 321 321 322 321 320 323 324 325 327 330 332 331 331 332 333 334 334 333 333 333 331 327 324 324 322 322 319 325 326 322 317 313 313 314 315 316 314 312 313 313 312 312 312
322 321 320 323 322 323 322 322 323 321 319 322 321 322 324 328 332 332 330 329 329 331 334 334 331 332 333 328 325 322 321 321 319 318 326 325 322 318 315 313 313 313 313 312 313 313 313 313 313
324 323 323 324 324 324 323 324 323 323 323 323 323 323 323 325 328 328 330 329 329 330 330 333 333 331 331 332 331 326 321 319 319 317 318 325 323 322 318 313 312 313 313 312 313 313 313 313 313
323 323 324 324 323 323 323 323 323 323 323 323 322 321 322 322 324 326 327 330 330 330 329 330 334 333 329 330 331 331 328 324 320 319 317 319 324 321 322 317 314 313 314 314 314 313 313 313 313
323 323 323 323 323 322 321 321 322 323 323 323 322 321 321 321 322 325 327 325 329 329 328 328 329 331 332 329 326 330 330 329 326 322 317 316 318 324 321 318 316 316 315 314 314 314 313 313 313
323 322 320 322 323 321 321 320 318 322 322 322 321 321 321 320 321 321 321 322 324 326 328 327 327 329 329 328 327 325 328 330 329 326 320 317 320 325 324 321 318 317 317 316 314 314 314 313 313
322 320 322 320 321 322 321 324 320 322 322 322 321 321 320 321 320 320 321 322 322 322 323 327 327 328 330 328 327 327 325 327 329 329 326 323 324 325 326 326 324 322 320 320 318 315 315 315 315
321 321 321 321 320 319 319 320 319 321 320 320 321 320 320 321 320 320 321 322 321 321 322 323 326 327 328 329 330 328 328 327 327 328 329 328 326 326 326 326 325 325 324 322 321 320 318 316 315
321 321 320 321 319 318 318 317 315 318 318 319 320 320 321 321 320 320 321 320 320 320 322 322 324 327 328 328 327 331 330 329 328 325 328 329 329 327 327 327 326 326 325 325 324 321 320 319 317
319 318 318 317 317 317 316 316 316 317 316 317 319 320 319 320 320 320 320 319 318 319 320 323 323 324 328 328 329 328 328 328 328 327 325 325 326 328 329 329 328 328 327 327 326 325 323 321 319
320 321 319 318 317 317 316 317 314 314 315 317 318 318 319 318 318 318 317 317 317 317 318 319 320 322 325 327 328 329 328 329 328 329 329 326 324 325 326 327 329 329 329 328 327 327 325 324 322
318 319 319 318 316 315 315 317 314 314 315 316 316 317 317 317 317 317 317 317 317 317 317 318 319 320 322 327 330 331 330 330 329 329 329 326 326 326 326 326 327 328 329 329 328 327 327 326 325
320 316 317 317 318 318 314 317 315 314 314 313 315 316 316 316 316 316 315 315 316 317 317 317 318 317 319 325 330 331 331 331 329 330 330 329 328 326 325 328 328 328 327 327 329 329 329 328 327
318 314 315 316 316 315 316 318 315 313 312 312 312 315 315 315 315 314 314 314 314 314 316 316 318 321 324 325 327 329 330 330 329 330 329 328 328 326 325 324 324 325 328 329 328 330 330 329 329
314 316 316 314 316 319 315 315 315 312 311 311 311 313 313 314 314 311 310 311 311 311 312 311 312 312 312 312 313 315 317 320 323 325 326 326 327 327 326 326 324 324 325 327 329 330 330 329 328
316 317 319 319 320 317 312 314 315 312 310 310 310 313 313 310 309 309 310 310 310 310 310 310 310 310 310 311 310 309 309 309 311 313 315 317 321 323 323 325 325 324 325 325 327 328 329 329 329
315 316 313 314 314 313 311 314 313 311 312 313 313 313 309 308 308 308 308 308 308 308 308 308 309 309 310 310 310 310 310 310 309 308 309 310 312 316 319 320 321 322 323 325 325 326 327 328 328
313 317 314 312 307 315 311 312 310 310 308 309 309 309 307 307 306 306 306 306 306 306 306 306 306 306 306 306 307 308 309 310 311 310 310 309 310 312 314 317 319 321 322 323 325 325 326 327 327
314 312 317 316 317 317 316 312 314 311 310 308 305 304 304 303 303 303 303 303 303 303 303 303 303 303 303 304 304 304 305 306 308 310 310 310 309 310 315 315 316 320 321 322 324 325 325 326 327
315 316 315 313 316 317 312 311 307 309 309 306 304 303 301 300 300 300 301 301 301 301 302 302 302 302 302 302 302 302 302 303 304 305 307 310 310 310 309 314 317 317 320 322 323 324 325 325 326
312 313 314 315 313 314 314 314 310 309 305 305 303 302 301 300 300 300 300 299 301 301 300 301 301 301 301 300 300 301 301 301 301 302 303 304 306 309 310 309 312 320 319 321 323 323 324 324 325
Wind_Speed
21 18 9 4 4 5 2 2 3 0 1 2 3 0 4 3 1 3 7 11 7 10 12 12 9 9 9 7 3 2 2 2 2 5 12 9 4 4 8 9 9 10 10 11 10 12 11 13 12
21 16 5 3 5 4 4 3 3 2 3 5 5 4 3 0 1 1 10 10 6 8 11 11 10 10 10 6 4 2 2 3 3 6 15 10 10 6 6 9 10 9 9 9 9 10 10 11 10
15 12 4 4 3 3 4 3 3 0 3 1 3 2 1 0 1 2 4 10 10 10 12 12 10 11 9 6 5 3 2 1 1 6 14 9 7 8 5 6 9 8 8 8 8 8 8 10 10
13 5 5 5 2 1 2 3 2 1 2 2 3 2 1 1 2 3 5 8 9 11 12 12 11 11 9 7 6 4 2 1 1 4 10 10 8 8 7 4 8 7 8 8 8 6 7 8 9
7 4 4 4 4 4 4 3 4 1 3 1 0 1 0 1 3 5 6 8 9 11 13 12 11 11 10 9 7 5 3 2 1 4 7 11 9 7 8 6 8 10 7 8 7 6 5 6 8
4 3 5 1 5 6 3 8 1 2 3 1 2 2 2 3 3 4 6 8 8 9 11 12 12 11 10 10 9 7 4 3 3 3 5 11 10 9 12 10 9 6 8 8 7 6 5 5 7
4 4 4 2 2 4 3 6 3 2 2 3 1 1 2 5 3 4 7 9 8 9 10 10 12 12 12 12 11 9 6 5 5 5 6 7 9 11 11 10 9 9 10 9 7 5 5 5 6
4 4 2 1 1 1 6 3 3 4 2 3 2 1 2 3 5 8 11 12 11 10 11 12 12 14 14 14 13 12 9 8 7 6 6 8 10 10 11 13 12 9 9 9 9 8 7 6 6
3 4 1 2 2 4 4 5 5 4 5 3 3 4 6 3 9 11 15 16 17 16 14 14 15 16 16 15 15 14 12 10 10 10 8 9 11 12 12 13 14 12 13 11 11 9 8 8 8
2 3 7 3 1 1 6 4 7 6 8 3 4 6 6 5 10 13 16 18 19 20 18 16 15 17 18 18 17 17 15 14 13 13 12 11 11 12 12 13 13 15 13 13 12 11 10 10 10
3 4 4 2 2 1 3 7 5 3 3 2 8 10 11 8 10 14 16 19 20 19 19 20 16 16 18 19 19 19 19 18 16 17 16 14 14 14 15 16 16 16 15 15 14 14 13 12 12
1 5 4 1 1 2 4 4 3 9 11 11 15 15 16 15 15 16 17 19 22 22 22 22 21 18 19 20 21 19 20 19 20 19 19 19 18 17 17 17 18 18 17 16 16 16 15 16 15
3 4 8 11 11 13 12 10 7 16 18 14 17 18 18 17 20 21 20 19 21 27 26 25 25 24 20 22 23 23 22 21 19 19 21 22 21 21 19 19 19 19 19 18 19 18 18 19 19
2 5 9 8 12 9 5 5 5 12 17 22 21 20 21 23 22 22 24 22 23 23 25 27 28 28 25 22 22 25 25 24 23 22 23 24 24 22 20 21 21 21 20 20 20 21 21 21 21
4 3 6 6 12 4 6 4 7 18 19 21 18 18 18 21 22 22 21 23 23 24 23 25 29 29 29 26 23 22 26 27 26 25 24 25 26 25 23 22 23 23 22 21 22 23 23 25 24
1 3 1 4 5 10 5 11 11 22 23 28 29 23 18 19 19 24 23 24 25 28 27 24 26 31 32 30 26 24 24 25 28 28 27 27 27 26 27 27 26 24 24 24 24 25 26 26 27
3 4 3 6 4 4 6 3 5 14 15 19 24 21 22 22 21 15 18 21 26 26 28 28 24 27 29 32 32 29 28 26 27 28 29 29 29 29 30 31 31 29 28 27 27 28 28 29 29
10 5 3 4 4 1 8 14 8 20 20 17 19 21 24 29 26 22 23 26 27 25 25 26 29 26 26 27 30 34 34 32 28 29 31 31 30 31 32 34 34 33 32 32 31 31 31 31 30
3 3 2 2 5 4 9 15 12 21 18 19 22 24 26 32 36 35 33 30 30 28 26 26 28 28 27 28 30 33 36 36 34 32 30 32 31 33 34 36 37 35 36 35 35 33 34 34 32
9 12 16 4 8 5 7 20 10 13 16 24 29 32 34 37 38 33 32 35 31 33 30 26 24 26 30 31 32 33 34 36 33 33 32 30 29 33 34 37 38 37 36 36 36 37 37 37 36
5 6 4 9 5 6 6 21 11 7 16 29 29 34 33 33 37 35 31 28 28 22 26 26 24 25 32 34 34 34 33 34 31 30 33 31 33 36 37 39 40 41 39 38 37 35 38 40 39
14 7 6 4 2 9 3 11 14 10 17 14 24 30 35 33 34 29 22 18 9 9 12 18 22 23 25 27 30 31 32 34 31 33 31 33 35 31 33 41 36 42 45 42 41 39 38 38 42
7 6 8 6 5 5 5 5 9 1 9 14 16 28 30 29 24 18 5 7 5 3 3 3 1 5 10 16 20 22 25 28 30 33 33 34 36 33 28 33 42 38 39 42 44 45 45 42 42
3 2 3 3 3 8 6 7 11 4 6 3 7 19 19 14 7 16 14 12 11 9 7 5 2 0 2 5 8 11 15 21 26 29 32 35 37 36 35 33 33 36 35 35 39 42 46 47 47
4 4 2 3 5 8 3 7 15 12 5 9 15 18 6 14 16 16 14 13 12 9 8 6 5 5 5 5 6 8 10 14 19 22 24 27 31 34 36 36 37 37 35 35 35 37 40 43 47
10 9 5 4 4 4 2 6 6 8 15 17 18 11 15 18 20 19 18 17 16 15 13 12 11 10 10 10 9 11 12 14 15 17 19 23 28 31 30 34 37 36 33 34 33 35 38 39 40
5 12 13 2 1 5 5 7 9 8 7 7 3 15 21 21 19 18 17 17 17 16 16 15 14 14 15 16 15 15 15 16 18 19 19 21 23 24 27 28 32 36 36 34 35 37 38 39 39
6 7 4 6 6 7 2 6 9 5 6 3 10 20 24 21 20 18 17 15 15 14 14 14 15 17 17 18 19 20 20 19 20 21 23 24 25 24 25 26 29 32 34 34 35 38 38 39 41
5 6 3 2 3 2 3 6 6 4 5 9 15 19 21 19 18 17 16 15 14 14 14 15 16 18 19 20 21 22 22 22 22 23 23 26 27 28 27 27 27 29 31 32 34 36 37 39 40
16 12 16 6 5 4 2 12 2 3 7 27 22 21 19 16 15 14 14 14 14 15 16 17 18 20 21 23 24 25 27 28 28 27 28 27 28 28 29 28 28 27 28 30 32 34 36 38 39
Wind_Direction
349 349 342 339 53 65 17 21 274 266 22 51 22 64 95 72 146 221 158 170 162 171 184 182 177 186 189 188 197 210 266 272 268 167 142 134 138 136 120 128 129 124 125 113 109 116 130 128 124
347 353 11 53 80 68 287 246 216 226 142 109 82 93 13 99 301 259 159 173 168 185 187 187 182 187 194 210 207 208 254 256 259 167 148 158 181 186 156 156 141 167 120 124 127 132 131 131 120
348 357 26 78 100 142 180 220 230 306 143 145 121 82 183 15 259 256 205 192 181 193 189 190 191 191 202 212 203 209 255 204 225 160 163 166 157 176 189 168 174 153 142 130 133 139 139 141 126
348 8 54 71 39 44 222 207 206 216 217 204 135 87 67 340 343 223 213 195 198 194 189 195 197 194 203 221 206 218 261 230 157 173 169 156 180 159 187 209 163 174 146 143 140 145 146 150 146
5 35 50 62 334 323 4 14 144 245 303 267 46 209 302 252 260 238 239 203 206 203 193 199 202 202 207 206 217 228 252 254 186 143 170 166 190 176 199 204 180 177 167 156 156 158 158 169 170
35 50 55 73 319 319 336 16 298 29 353 97 52 134 266 201 257 243 209 200 199 225 207 204 206 208 212 210 212 223 245 231 210 183 172 175 189 189 201 196 213 202 178 173 173 171 173 181 194
79 69 166 169 283 343 307 353 35 344 23 15 69 144 282 200 220 233 197 201 217 219 234 225 218 216 216 220 216 223 229 227 221 217 196 202 198 198 202 207 213 209 195 194 190 189 198 203 211
32 90 120 224 197 222 339 1 4 22 5 15 349 222 311 322 209 204 208 216 222 235 242 247 239 231 228 228 227 227 223 224 227 225 223 208 216 216 208 213 201 213 207 209 203 207 209 219 229
3 54 208 223 109 271 352 23 22 331 344 3 331 318 312 294 208 206 215 219 225 229 234 246 254 245 237 236 237 235 230 227 230 235 238 231 222 226 222 213 224 225 219 212 213 220 221 225 232
95 124 218 186 246 305 329 6 338 349 341 342 352 340 330 288 217 223 232 231 235 235 236 241 250 252 251 239 238 241 241 239 238 237 242 247 239 233 236 235 230 234 234 229 224 230 232 233 237
170 197 205 246 140 337 282 313 319 333 327 302 321 326 324 288 240 235 245 249 250 248 245 245 249 249 253 248 243 243 243 245 242 241 240 244 249 250 242 238 238 239 240 235 231 234 239 243 246
244 246 261 273 268 284 269 271 267 275 261 285 301 291 301 285 263 266 258 254 254 250 251 249 251 253 256 251 252 250 248 248 248 246 245 243 245 249 252 249 245 244 245 245 243 245 246 248 250
216 272 291 292 275 269 267 253 245 255 279 287 297 289 295 288 274 274 270 262 254 253 254 253 251 253 259 254 253 254 252 250 252 254 250 249 252 254 254 247 244 245 246 249 250 250 250 252 255
296 284 285 298 285 278 249 256 228 267 284 292 291 287 291 287 284 271 267 270 261 263 257 254 254 254 255 258 259 259 260 258 259 259 257 252 254 257 257 252 250 250 250 254 257 256 255 256 257
267 315 319 267 269 271 289 280 236 277 284 283 283 298 301 289 273 274 272 277 281 278 275 257 254 254 253 256 259 262 264 264 264 263 262 255 254 258 260 260 258 256 257 259 259 256 254 253 253
27 92 246 277 240 264 201 262 255 274 272 275 284 292 301 307 298 264 267 282 284 278 273 270 255 254 253 255 258 261 266 266 266 266 266 260 257 259 262 265 268 266 262 261 259 257 257 256 256
244 238 218 311 253 278 204 275 271 305 303 279 279 280 293 307 298 283 273 271 285 288 275 268 265 257 254 257 260 260 263 266 266 267 269 266 263 262 264 268 272 272 268 264 263 262 259 259 260
239 232 177 220 304 283 281 276 273 297 294 270 277 287 294 294 289 283 274 278 285 284 284 270 263 260 258 258 260 260 259 260 260 266 266 268 268 266 267 268 270 271 270 267 265 265 264 264 266
256 231 284 338 274 307 276 285 290 292 292 280 275 278 284 285 285 280 283 278 281 278 273 268 260 259 257 257 256 257 260 259 260 261 266 275 278 273 269 268 270 269 268 269 269 269 268 267 266
241 259 259 256 260 280 268 280 281 274 266 275 277 279 280 285 284 288 286 279 282 270 270 269 271 273 266 263 264 263 267 265 267 270 270 268 269 275 278 271 270 270 269 270 269 267 267 268 265
204 219 224 244 292 271 284 280 264 256 258 266 269 275 276 274 275 281 289 295 290 274 258 266 269 268 271 266 262 266 268 267 271 274 273 275 269 266 275 279 274 271 270 268 270 269 266 266 268
244 196 212 221 266 272 135 291 276 277 276 263 267 272 272 274 275 274 285 293 294 287 274 262 264 261 263 269 269 268 271 272 280 283 284 283 284 283 283 285 280 281 276 269 268 271 270 268 265
242 175 199 201 217 320 206 253 283 57 285 273 254 265 273 279 279 285 185 143 123 106 56 50 346 266 263 265 268 270 271 275 280 282 284 284 285 285 279 281 289 288 283 282 277 273 269 268 268
156 158 48 43 156 247 175 194 270 266 233 269 284 303 298 290 142 132 124 119 112 100 101 96 93 192 277 270 268 268 273 276 277 279 283 283 285 286 284 279 272 274 278 278 278 278 276 273 270
152 154 238 216 220 255 208 210 250 274 261 247 272 283 120 118 117 116 108 95 90 84 67 55 34 15 3 335 318 306 297 289 285 286 285 284 282 282 284 284 283 284 285 285 279 278 277 276 273
198 192 207 215 208 256 53 235 253 240 279 283 292 179 121 101 103 98 88 80 72 63 55 48 41 29 14 359 343 326 313 312 314 311 305 297 288 283 283 284 285 284 285 283 283 280 278 275 274
186 210 220 298 115 276 235 283 290 269 309 349 359 131 114 112 100 88 79 71 63 54 46 37 32 27 21 15 8 357 340 324 317 314 312 311 306 299 285 279 278 281 281 281 281 278 278 277 274
182 157 166 192 234 235 229 280 241 292 323 27 82 100 107 100 94 85 75 68 60 50 40 31 23 17 11 6 0 357 353 347 338 327 318 313 311 308 301 289 278 277 278 280 279 278 279 278 275
181 206 169 139 196 214 229 248 215 234 287 119 97 93 98 90 79 70 63 56 51 39 28 22 13 7 3 358 353 348 345 343 340 336 331 323 315 311 307 301 292 282 277 277 279 279 279 278 277
215 223 208 215 204 233 227 264 6 133 178 127 119 115 103 89 78 62 49 39 36 26 16 12 5 1 359 355 351 346 341 339 338 335 332 329 324 320 309 303 297 290 285 279 277 279 279 278 278